weather.gov     
National Weather Service

Regional Weather Roundup
NWS Homepage
This page is being discontinued on March 12, 2014.
The same data is available at this site. Please update your bookmarks.
Thank you, and we apologize for the inconvenience.
Please send an email to SR-SRH.Webmaster@noaa.gov with any concerns.


Current Version
Previous Version:    01  02  03  04  05  06  07  08  09  10  11  12  13  14  15  16  17  18  19  20  21  22  23  24  25  26  27  28  29  30  
   31  32  33  34  35  36  37  38  39  40  41  42  43  44  45  46  47  48  49  50  51  52  53  54  55  
[Printable]
055
ASUS41 KGYX 232010
RWRGYX
WEATHER ROUNDUP FOR MAINE AND NEW HAMPSHIRE
NATIONAL WEATHER SERVICE GRAY ME
400 PM EDT WED APR 23 2014

MEZ002-005-006-010-012-015-018-020-021-024-026-027-029-232100-
MAINE

CITY           SKY/WX    TMP DP  RH WIND       PRES   REMARKS
PORTLAND       CLOUDY    52  35  52 NW20G28   29.42S
SANFORD        CLOUDY    52 N/A N/A NW16G22   29.43S
BAR HARBOR     CLOUDY    54  46  76 N9G18     29.38S
WISCASSET      CLOUDY    55  38  52 VRB5G22   29.40F
ROCKLAND       PTSUNNY   54  43  66 N6G22     29.36S
FRYEBURG       CLOUDY    50  34  54 N10G18    29.47R
LEWISTONAUBURN CLOUDY    52  34  50 N24G30    29.44R
AUGUSTA        CLOUDY    50  35  56 NW13G24   29.44R
WATERVILLE     CLOUDY    52  36  54 NW15G22   29.40R
BANGOR         CLOUDY    52  38  58 NW17      29.42S
GREENVILLE       N/A     39  33  79 N17G24    29.44R
MILLINOCKET    CLOUDY    43  35  73 W13G20    29.46R
HOULTON        CLOUDY    45  43  93 NW8       29.41S FOG
PRESQUE ISLE   CLOUDY    43  37  81 NW9       29.44
FRENCHVILLE    LGT RAIN  39  38  96 NW10      29.44R FOG
CARIBOU        LGT RAIN  42  40  92 NW14      29.42R FOG
$$

NHZ002-005-008-009-011-012-014-232100-
NEW HAMPSHIRE

CITY           SKY/WX    TMP DP  RH WIND       PRES   REMARKS
PORTSMOUTH     CLOUDY    52  39  61 NW22G29   29.43R
ROCHESTER      CLOUDY    50  35  56 NW24G35   29.44R
NASHUA         CLOUDY    52  35  52 N24G41    29.50R
MANCHESTER     PTSUNNY   51  33  50 NW26G40   29.48R
CONCORD        CLOUDY    50  34  54 N23G35    29.50R
LACONIA        CLOUDY    46  32  57 NW15G26   29.51S
PLYMOUTH         N/A     45  35  67 NW16G25   29.54S
BERLIN         CLOUDY    41  34  76 NW7       29.54S
WHITEFIELD     CLOUDY    43  34  70 NW7       29.56S
JAFFREY        CLOUDY    48  32  53 N12G29    29.52R
LEBANON        CLOUDY    48  33  56 N10G20    29.57S
MT WASHINGTON  SNOW      21  21 100 NW43G64     N/A  VSB 0   WCI   0
$$

VTZ005-007-008-232100-
VERMONT

CITY           SKY/WX    TMP DP  RH WIND       PRES   REMARKS
ST JOHNSBURY     N/A     45  34  65 MISG      29.56S
MONTPELIER     CLOUDY    43  34  70 NW10G18   29.62S
BURLINGTON     CLOUDY    48  33  56 NW20G31   29.65R
$$

MAZ007-012-024-CTZ003-RIZ002-NYZ038-NYZ072-232100-
SOUTHERN NEW ENGLAND AND NY

CITY           SKY/WX    TMP DP  RH WIND       PRES   REMARKS
BOSTON         CLOUDY    53  38  56 NW24G35   29.44F
WORCESTER      CLOUDY    49  35  58 NW15G36   29.48S
NANTUCKET      CLOUDY    51  45  79 NW15G25   29.40R
PROVIDENCE     CLOUDY    52  40  63 NW23G32   29.46S
HARTFORD       PTSUNNY   55  37  50 N16G29    29.52F
ALBANY         PTSUNNY   50  33  52 NW25G37   29.65R
NEW YORK CITY  PTSUNNY   58  33  39 NW20G32   29.59S
$$

ANZ081-ANZ082-ANZ150-NHZ014-MEZ023>029-232100-
COASTAL MARINE OBSERVATIONS

STATION/POSITION TIME  TEMP    WIND        PRES    WAVE
                       AIR SEA DIR/SP/G            HT/PER
                 (UTC) (F)     (DEG/KT/KT) (MB)    (FT/S)
MOUNT DESERT ROC 2000   44                  993.5F
MATINICUS ROCK   2000   46      20/  7/  9  994.3R
PORTLAND WX BUOY 2000   49 43  330/ 16/ 17  995.7R   2/ 7
WELLS            2000   52 40  360/ 13/ 16  995.3F
ISLE OF SHOALS   2000   50     320/ 21/ 23  995.5R
JEFFREYS LEDGE   2000      43                N/A     3/ 8
CASHES LEDGE BUO 2000   44 42  310/ 12/ 14  994.2R   3/ 7
$$

.............KEY..............
   WCI - WIND CHILL
   TC  - TEMPERATURE IN CELSIUS
   VSB - VISIBILITY IN MILES
   HX  - HEAT INDEX
   FAIR- INDICATES FEW OR NO CLOUDS BELOW 12,000 FT, WITH NO
         SIGNIFICANT WEATHER AND/OR OBSTRUCTIONS TO VISIBILITY.






U.S. Dept. of Commerce
NOAA National Weather Service
1325 East West Highway
Silver Spring, MD 20910
E-mail: w-nws.webmaster@noaa.gov
Page last modified: May 16, 2007
NATIONAL WEATHER SERVICE: for Safety, for Work, for Fun - FOR LIFE